North Bend, OR

6:34 AM PDT on March 24, 2017 (GMT -0700)
North Bend Municipal

Weather History for KOTH - August, 2012

Change the Weather History Date:

Monday, August 20, 2012

  Actual Average Record
Temperature  
Mean Temperature 58 °F 59 °F  
Max Temperature 66 °F 66 °F 89 °F (1913)
Min Temperature 50 °F 53 °F 36 °F (1913)
Degree Days  
Heating Degree Days 7 6  
Month to date heating degree days 118 120  
Since 1 June heating degree days 524 584  
Since 1 July heating degree days 272 317  
Cooling Degree Days 0 0  
Month to date cooling degree days 0 0  
Year to date cooling degree days 0 0  
Since 1 June cooling degree days 0 0  
Growing Degree Days 8 (Base 50)    
Moisture  
Dew Point 55 °F    
Average Humidity 89    
Maximum Humidity 100    
Minimum Humidity 73    
Precipitation  
Precipitation 0.00 in 0.02 in 0.33 in (2008)
Month to date precipitation 0.00 0.32  
Year to date precipitation 28.80 36.94  
Sea Level Pressure  
Sea Level Pressure 30.03 in    
Wind  
Wind Speed 8 mph (NNW)    
Max Wind Speed 21 mph    
Max Gust Speed 25 mph    
Visibility 8 miles    
Events      
T = Trace of Precipitation, MM = Missing Value Source: NWS Daily Summary

Daily Weather History Graph

Daily Weather History Graph

Search for Another Location

Airport or City:

Trip Planner

Search our weather history database for the weather conditions in past years. The results will help you decide how hot, cold, wet, or windy it might be!

Date:

Astronomy

Aug. 20, 2012 Rise Set
Actual Time 6:28 AM PDT 8:11 PM PDT
Civil Twilight 5:57 AM PDT 8:41 PM PDT
Nautical Twilight 5:20 AM PDT 9:18 PM PDT
Astronomical Twilight 4:41 AM PDT 9:57 PM PDT
Moon 10:05 AM PDT (8/20) 9:28 PM PDT (8/20)
Length of Visible Light 14h 43m
Length of Day
13h 43m
Waxing Crescent, 12% of the Moon is Illuminated
Aug 20
Waxing Crescent
Aug 24
First Quarter
Aug 31
Full
Sep 8
Last Quarter
Sep 15
New

Hourly Weather History & Observations

Time (PDT) Temp. Dew Point Humidity Pressure Visibility Wind Dir Wind Speed Gust Speed Precip Events Conditions
12:15 AM 53.6 °F 51.8 °F 94% 30.07 in 10.0 mi NNE 3.5 mph - N/A   Clear
12:35 AM 53.6 °F 53.6 °F 100% 30.06 in 10.0 mi NNE 3.5 mph - N/A   Clear
12:55 AM 53.6 °F 51.8 °F 94% 30.06 in 10.0 mi North 4.6 mph - N/A   Clear
1:15 AM 53.6 °F 53.6 °F 100% 30.06 in 10.0 mi NE 3.5 mph - N/A   Clear
1:35 AM 53.6 °F 53.6 °F 100% 30.06 in 10.0 mi Calm Calm - N/A   Clear
1:55 AM 53.6 °F 53.6 °F 100% 30.05 in 10.0 mi Calm Calm - N/A   Clear
2:15 AM 51.8 °F 50.0 °F 94% 30.05 in 10.0 mi Calm Calm - N/A   Clear
2:35 AM 51.8 °F 50.0 °F 94% 30.05 in 10.0 mi Calm Calm - N/A   Clear
2:55 AM 51.8 °F 51.8 °F 100% 30.05 in 10.0 mi Calm Calm - N/A   Clear
3:15 AM 51.8 °F 51.8 °F 100% 30.05 in 0.5 mi Calm Calm - N/A   Overcast
3:35 AM 51.8 °F 51.8 °F 100% 30.06 in 0.5 mi Calm Calm - N/A   Overcast
3:55 AM 51.8 °F 50.0 °F 94% 30.06 in 0.5 mi Calm Calm - N/A   Overcast
4:15 AM 51.8 °F 51.8 °F 100% 30.06 in 0.8 mi Calm Calm - N/A   Overcast
4:35 AM 51.8 °F 51.8 °F 100% 30.06 in 0.8 mi Calm Calm - N/A   Overcast
4:55 AM 51.8 °F 51.8 °F 100% 30.05 in 10.0 mi SE 3.5 mph - N/A   Overcast
5:15 AM 51.8 °F 51.8 °F 100% 30.05 in 1.0 mi Calm Calm - N/A   Overcast
5:35 AM 51.8 °F 50.0 °F 94% 30.05 in 0.5 mi Calm Calm - N/A   Overcast
5:55 AM 51.8 °F 51.8 °F 100% 30.05 in 5.0 mi Calm Calm - N/A   Overcast
6:15 AM 51.8 °F 51.8 °F 100% 30.05 in 9.0 mi Calm Calm - N/A   Overcast
6:35 AM 51.8 °F 51.8 °F 100% 30.05 in 3.0 mi Calm Calm - N/A   Overcast
6:55 AM 51.8 °F 51.8 °F 100% 30.05 in 1.0 mi SSE 3.5 mph - N/A   Overcast
7:15 AM 51.8 °F 51.8 °F 100% 30.05 in 1.0 mi Calm Calm - N/A   Overcast
7:35 AM 51.8 °F 51.8 °F 100% 30.05 in 1.0 mi ESE 4.6 mph - N/A   Overcast
7:55 AM 51.8 °F 51.8 °F 100% 30.05 in 1.0 mi SSE 3.5 mph - N/A   Overcast
8:15 AM 51.8 °F 51.8 °F 100% 30.05 in 1.0 mi Calm Calm - N/A   Overcast
8:35 AM 53.6 °F 53.6 °F 100% 30.05 in 1.0 mi Calm Calm - N/A   Overcast
8:55 AM 53.6 °F 51.8 °F 94% 30.05 in 2.0 mi Calm Calm - N/A   Mostly Cloudy
9:15 AM 53.6 °F 51.8 °F 94% 30.04 in 10.0 mi Calm Calm - N/A   Scattered Clouds
9:35 AM 57.2 °F 53.6 °F 88% 30.04 in 10.0 mi Calm Calm - N/A   Scattered Clouds
9:55 AM 57.2 °F 55.4 °F 94% 30.04 in 10.0 mi Calm Calm - N/A   Scattered Clouds
10:15 AM 57.2 °F 55.4 °F 94% 30.03 in 10.0 mi West 5.8 mph - N/A   Clear
10:35 AM 60.8 °F 53.6 °F 77% 30.03 in 10.0 mi West 4.6 mph - N/A   Clear
10:55 AM 60.8 °F 55.4 °F 82% 30.03 in 10.0 mi West 4.6 mph - N/A   Clear
11:15 AM 62.6 °F 55.4 °F 77% 30.03 in 10.0 mi West 9.2 mph - N/A   Clear
11:35 AM 64.4 °F 55.4 °F 73% 30.03 in 10.0 mi NW 10.4 mph - N/A   Clear
11:55 AM 64.4 °F 55.4 °F 73% 30.03 in 10.0 mi NNW 11.5 mph - N/A   Clear
12:15 PM 64.4 °F 55.4 °F 73% 30.03 in 10.0 mi North 15.0 mph - N/A   Clear
12:35 PM 66.2 °F 55.4 °F 68% 30.02 in 10.0 mi North 17.3 mph 20.7 mph N/A   Clear
12:55 PM 64.4 °F 55.4 °F 73% 30.02 in 10.0 mi North 18.4 mph - N/A   Clear
1:15 PM 64.4 °F 55.4 °F 73% 30.02 in 10.0 mi North 19.6 mph 24.2 mph N/A   Clear
1:35 PM 64.4 °F 57.2 °F 77% 30.02 in 10.0 mi North 18.4 mph 24.2 mph N/A   Clear
1:55 PM 66.2 °F 57.2 °F 73% 30.02 in 10.0 mi North 18.4 mph 24.2 mph N/A   Clear
2:15 PM 64.4 °F 57.2 °F 77% 30.02 in 10.0 mi North 18.4 mph 26.5 mph N/A   Clear
2:35 PM 64.4 °F 57.2 °F 77% 30.01 in 10.0 mi North 18.4 mph 25.3 mph N/A   Clear
2:55 PM 64.4 °F 57.2 °F 77% 30.01 in 10.0 mi North 20.7 mph - N/A   Clear
3:15 PM 64.4 °F 57.2 °F 77% 30.01 in 10.0 mi North 18.4 mph 24.2 mph N/A   Clear
3:35 PM 64.4 °F 57.2 °F 77% 30.00 in 10.0 mi North 18.4 mph 24.2 mph N/A   Clear
3:55 PM 64.4 °F 57.2 °F 77% 30.00 in 10.0 mi North 18.4 mph 25.3 mph N/A   Clear
4:15 PM 64.4 °F 57.2 °F 77% 30.00 in 10.0 mi North 13.8 mph 21.9 mph N/A   Clear
4:35 PM 64.4 °F 55.4 °F 73% 30.00 in 10.0 mi North 20.7 mph 27.6 mph N/A   Clear
4:55 PM 64.4 °F 57.2 °F 77% 30.00 in 10.0 mi North 19.6 mph 23.0 mph N/A   Clear
5:15 PM 64.4 °F 57.2 °F 77% 30.00 in 10.0 mi North 19.6 mph 25.3 mph N/A   Clear
5:35 PM 64.4 °F 57.2 °F 77% 30.00 in 10.0 mi North 15.0 mph 23.0 mph N/A   Clear
5:55 PM 64.4 °F 57.2 °F 77% 30.00 in 10.0 mi NNW 17.3 mph 24.2 mph N/A   Clear
6:15 PM 64.4 °F 57.2 °F 77% 30.00 in 10.0 mi NNW 16.1 mph 24.2 mph N/A   Clear
6:35 PM 62.6 °F 57.2 °F 82% 30.00 in 10.0 mi North 15.0 mph 23.0 mph N/A   Clear
6:55 PM 62.6 °F 57.2 °F 82% 30.00 in 10.0 mi North 15.0 mph 19.6 mph N/A   Clear
7:15 PM 62.6 °F 59.0 °F 88% 30.00 in 10.0 mi North 10.4 mph 18.4 mph N/A   Partly Cloudy
7:35 PM 62.6 °F 59.0 °F 88% 30.00 in 10.0 mi North 15.0 mph 19.6 mph N/A   Scattered Clouds
7:55 PM 60.8 °F 59.0 °F 94% 30.00 in 10.0 mi North 9.2 mph - N/A   Scattered Clouds
8:15 PM 60.8 °F 59.0 °F 94% 30.00 in 10.0 mi North 9.2 mph - N/A   Overcast
8:35 PM 60.8 °F 59.0 °F 94% 30.01 in 10.0 mi North 12.7 mph - N/A   Overcast
8:55 PM 60.8 °F 59.0 °F 94% 30.01 in 10.0 mi North 11.5 mph - N/A   Overcast
9:15 PM 60.8 °F 59.0 °F 94% 30.02 in 10.0 mi North 10.4 mph - N/A   Overcast
9:35 PM 60.8 °F 59.0 °F 94% 30.02 in 5.0 mi NNW 6.9 mph - N/A   Mostly Cloudy
9:55 PM 60.8 °F 59.0 °F 94% 30.02 in 10.0 mi NNW 5.8 mph - N/A   Overcast
10:15 PM 59.0 °F 59.0 °F 100% 30.02 in 10.0 mi NNW 8.1 mph - N/A   Overcast
10:35 PM 60.8 °F 59.0 °F 94% 30.03 in 10.0 mi North 8.1 mph - N/A   Overcast
10:55 PM 60.8 °F 59.0 °F 94% 30.02 in 10.0 mi NNW 6.9 mph - N/A   Overcast
11:15 PM 59.0 °F 59.0 °F 100% 30.02 in 10.0 mi NNW 4.6 mph - N/A   Overcast
11:35 PM 60.8 °F 59.0 °F 94% 30.02 in 10.0 mi NNW 3.5 mph - N/A   Overcast
11:55 PM 60.8 °F 59.0 °F 94% 30.02 in 10.0 mi NNW 5.8 mph - N/A   Overcast